Location: Kaseke
(18.0171°S, 31.0526°E)
Time: 18:06:53
(UTC+00:00)

N. Korean satellite - Visible Passes

Search period start: 13 June 2021 00:00
Search period end: 23 June 2021 00:00
Orbit: 450 x 500 km, 97.2° (Epoch: 12 June)

Date Brightness Start Highest point End Pass type
(mag) Time Alt. Az. Time Alt. Az. Time Alt. Az.
13 Jun 7.6 03:17:13 10° NNW 03:20:19 26° W 03:20:38 26° W visible
14 Jun 6.4 02:49:26 10° N 02:53:04 74° W 02:53:04 74° W visible
14 Jun 9.9 16:02:48 10° WSW 16:03:25 10° WSW 16:04:02 10° W visible
15 Jun 8.1 02:22:30 10° NE 02:25:32 36° E 02:25:32 36° E visible
16 Jun 9.7 01:56:40 10° ENE 01:57:59 14° E 01:57:59 14° E visible
16 Jun 8.2 03:29:18 10° NW 03:31:49 18° W 03:32:08 17° W visible
17 Jun 6.8 03:01:01 10° N 03:04:33 46° W 03:04:35 46° W visible
18 Jun 7.2 02:33:43 10° NNE 02:37:01 56° ENE 02:37:01 56° ENE visible
19 Jun 9.1 02:07:19 10° NE 02:09:26 20° E 02:09:26 20° E visible
19 Jun 8.6 03:41:54 10° WNW 03:43:18 12° W 03:43:37 12° W visible
20 Jun 7.5 03:12:44 10° NNW 03:16:00 30° W 03:16:02 30° W visible
21 Jun 6.6 02:45:04 10° N 02:48:27 75° N 02:48:27 75° N visible
21 Jun 9.6 15:57:42 10° SW 15:59:01 12° WSW 16:00:20 10° W visible
22 Jun 8.5 02:18:14 10° NE 02:20:52 30° E 02:20:52 30° E visible
